Location: Brede
(50.9167°N, 0.6000°E)
Time: 00:45:16
(UTC+00:00)

NOSS 3-1 (C) - Pass Details

Date: 08 August 2020
Orbit: 744 x 1464 km, 63.4° (Epoch: 17 September)

Event Time Altitude Azimuth Distance (km) Brightness Sun altitude
Exits shadow 03:21:05 13° 221° (SW) 2,196 4.7 -10.4°
Maximum altitude 03:26:04 88° 132° (SE) 911 3.4 -9.8°
Drops below altitude 10° 03:32:39 10° 45° (NE) 2,842 7.6 -9.0°
Sets 03:35:31 0° 45° (NE) 3,914 9.0 -8.6°
